Weather History for Gillette, WY

Change the Weather History Date:

Tuesday, August 13, 2013

  Actual Average Record
Temperature  
Mean Temperature 69 °F 70 °F  
Max Temperature 85 °F 87 °F 102 °F (2003)
Min Temperature 53 °F 54 °F 40 °F (1966)
Degree Days  
Heating Degree Days 0 1  
Month to date heating degree days 0 10  
Since 1 June heating degree days 117 171  
Since 1 July heating degree days 0 29  
Cooling Degree Days 4 6  
Month to date cooling degree days 71 93  
Year to date cooling degree days 343 375  
Since 1 June cooling degree days 335 367  
Growing Degree Days 18 (Base 50)    
Moisture  
Dew Point 53 °F    
Average Humidity 62    
Maximum Humidity 93    
Minimum Humidity 31    
Precipitation  
Precipitation 0.25 in 0.03 in 0.50 in (1979)
Month to date precipitation 0.99 0.48  
Year to date precipitation 13.43 10.01  
Sea Level Pressure  
Sea Level Pressure 30.09 in    
Wind  
Wind Speed 6 mph (SSW)    
Max Wind Speed 24 mph    
Max Gust Speed 33 mph    
Visibility 10 miles    
Events Rain , Thunderstorm    
T = Trace of Precipitation, MM = Missing Value Source: NWS Daily Summary

Daily Weather History Graph

Daily Weather History Graph

Search for Another Location

Airport:

Trip Planner

Search our weather history database for the weather conditions in past years. The results will help you decide how hot, cold, wet, or windy it might be!

Date:

Astronomy

Aug. 13, 2013 Rise Set
Actual Time 6:03 AM MDT 8:09 PM MDT
Civil Twilight 5:31 AM MDT 8:41 PM MDT
Nautical Twilight 4:52 AM MDT 9:20 PM MDT
Astronomical Twilight 4:09 AM MDT 10:03 PM MDT
Moon 1:19 PM MDT (8/13) 11:28 PM MDT (8/13)
Length of Visible Light 15h 09m
Length of Day
14h 06m
Waxing Crescent, 42% of the Moon is Illuminated
Aug 13
Waxing Crescent
Aug 14
First Quarter
Aug 20
Full
Aug 28
Last Quarter
Sep 5
New

Hourly Weather History & Observations

Time (MDT) Temp. Dew Point Humidity Pressure Visibility Wind Dir Wind Speed Gust Speed Precip Events Conditions
12:53 AM 64.0 °F 50.0 °F 60% 30.00 in 10.0 mi South 9.2 mph - N/A   Clear
1:53 AM 62.1 °F 48.9 °F 62% 29.99 in 10.0 mi SSE 3.5 mph - N/A   Clear
2:53 AM 55.9 °F 48.9 °F 77% 30.03 in 10.0 mi Calm Calm - N/A   Clear
3:53 AM 54.0 °F 48.0 °F 80% 30.05 in 10.0 mi SW 5.8 mph - N/A   Clear
4:53 AM 54.0 °F 48.0 °F 80% 30.06 in 10.0 mi WNW 8.1 mph - N/A   Clear
5:40 AM 57.2 °F 53.6 °F 88% 30.19 in 10.0 mi NNW 10.4 mph - N/A   Scattered Clouds
5:48 AM 57.2 °F 55.4 °F 94% 30.19 in 10.0 mi NNW 10.4 mph - N/A   Mostly Cloudy
5:53 AM 57.9 °F 55.0 °F 90% 30.09 in 10.0 mi North 9.2 mph - N/A   Mostly Cloudy
6:10 AM 57.2 °F 55.4 °F 94% 30.19 in 10.0 mi NNW 6.9 mph - N/A   Scattered Clouds
6:53 AM 55.9 °F 54.0 °F 93% 30.10 in 10.0 mi Calm Calm - N/A   Mostly Cloudy
7:53 AM 61.0 °F 57.0 °F 87% 30.10 in 10.0 mi East 4.6 mph - N/A   Overcast
8:27 AM 62.6 °F 57.2 °F 82% 30.21 in 10.0 mi NNE 4.6 mph - N/A   Scattered Clouds
8:53 AM 63.0 °F 57.9 °F 84% 30.10 in 10.0 mi Calm Calm - N/A   Partly Cloudy
9:53 AM 69.1 °F 54.0 °F 58% 30.11 in 10.0 mi SSE 4.6 mph - N/A   Clear
10:53 AM 73.9 °F 53.1 °F 48% 30.09 in 10.0 mi SSW 6.9 mph - N/A   Clear
11:53 AM 75.9 °F 52.0 °F 43% 30.08 in 10.0 mi Variable 4.6 mph - N/A   Clear
12:53 PM 80.1 °F 48.9 °F 34% 30.04 in 10.0 mi SSE 9.2 mph - N/A   Clear
1:53 PM 82.0 °F 48.0 °F 30% 30.02 in 10.0 mi South 9.2 mph - N/A   Clear
2:53 PM 82.9 °F 48.0 °F 29% 30.01 in 10.0 mi WNW 6.9 mph - N/A   Clear
3:53 PM 82.9 °F 48.0 °F 29% 29.99 in 9.0 mi West 11.5 mph 16.1 mph N/A   Partly Cloudy
4:24 PM 73.4 °F 51.8 °F 47% 30.13 in 5.0 mi WSW 18.4 mph 28.8 mph 0.00 in Rain , Thunderstorm Thunderstorms and Rain
4:38 PM 66.2 °F 51.8 °F 60% 30.16 in 2.5 mi ENE 16.1 mph 33.4 mph 0.20 in Rain , Thunderstorm Heavy Thunderstorms and Rain
4:46 PM 73.4 °F 48.2 °F 41% 30.16 in 8.0 mi Variable 5.8 mph 18.4 mph 0.22 in Rain , Thunderstorm Light Thunderstorms and Rain
4:53 PM 69.1 °F 55.0 °F 61% 30.07 in 10.0 mi SSW 8.1 mph 23.0 mph 0.22 in Rain , Thunderstorm Light Thunderstorms and Rain
5:15 PM 69.8 °F 55.4 °F 60% 30.12 in 10.0 mi Calm Calm - 0.03 in Thunderstorm Mostly Cloudy
5:44 PM 69.8 °F 60.8 °F 73% 30.15 in 10.0 mi ESE 10.4 mph 17.3 mph 0.03 in Thunderstorm Mostly Cloudy
5:53 PM 66.9 °F 57.0 °F 70% 30.06 in 10.0 mi South 8.1 mph 23.0 mph 0.03 in Thunderstorm Scattered Clouds
6:05 PM 68.0 °F 57.2 °F 68% 30.16 in 10.0 mi SE 6.9 mph - N/A   Partly Cloudy
6:53 PM 66.9 °F 53.1 °F 61% 30.06 in 10.0 mi South 6.9 mph - N/A   Clear
7:53 PM 64.9 °F 52.0 °F 63% 30.06 in 10.0 mi SE 5.8 mph - N/A   Clear
8:53 PM 60.1 °F 53.1 °F 78% 30.06 in 10.0 mi SW 6.9 mph - N/A   Clear
9:53 PM 62.1 °F 51.1 °F 67% 30.07 in 10.0 mi South 6.9 mph - N/A   Clear
10:53 PM 66.9 °F 48.9 °F 52% 30.03 in 10.0 mi South 6.9 mph - N/A   Overcast
11:53 PM 66.0 °F 48.9 °F 54% 30.02 in 10.0 mi SSW 9.2 mph - N/A   Partly Cloudy